DW7285 Weather Reports


time (UTC)temp
F
wind
direction
speed
knots
gust
knots
rain 1hr
in
rain 24hr
in
rain mn
in
humidity
%
barometer
mb
20260906131507 71 94 1.7 4.3 0.00 0.00 0.00 97 1014.6
20260906130003 71 44 0.9 4.3 0.00 0.00 0.00 97 1014.4
20260906124502 70 79 0.0 1.7 0.00 0.00 0.00 97 1014.4
20260906123005 70 41 1.7 6.1 0.00 0.00 0.00 97 1014.3
20260906121601 70 74 0.0 2.6 0.00 0.00 0.00 97 1014.3
20260906114556 71 74 0.0 0.9 0.00 0.00 0.00 97 1014.0
20260906113053 71 98 0.0 1.7 0.00 0.00 0.00 97 1013.7
20260906111551 70 82 0.0 0.0 0.00 0.00 0.00 97 1013.4
20260906110050 71 82 0.9 1.7 0.00 0.00 0.00 96 1013.2
20260906104547 71 93 0.0 1.7 0.00 0.00 0.00 96 1013.0
20260906103046 71 90 0.0 3.5 0.00 0.00 0.00 95 1013.0
20260906101545 71 105 0.0 1.7 0.00 0.00 0.00 95 1013.0
20260906100042 72 99 0.0 0.9 0.00 0.00 0.00 95 1012.9
20260906094539 72 95 0.0 2.6 0.00 0.00 0.00 94 1012.7
20260906093051 73 84 0.9 2.6 0.00 0.00 0.00 94 1012.6
20260906091536 73 91 0.0 1.7 0.00 0.00 0.00 93 1012.5
20260906090034 73 51 0.0 0.9 0.00 0.00 0.00 93 1012.6
20260906084537 74 86 0.0 1.7 0.00 0.00 0.00 93 1012.4
20260906083029 74 74 0.0 0.9 0.00 0.00 0.00 92 1012.5
20260906081530 75 81 0.0 1.7 0.00 0.00 0.00 91 1012.4
20260906080026 75 66 0.0 1.7 0.00 0.00 0.00 91 1012.3
20260906074526 76 76 0.0 2.6 0.00 0.00 0.00 91 1012.3
20260906073027 76 100 0.0 0.9 0.00 0.00 0.00 92 1012.3
20260906071521 77 75 0.0 0.9 0.00 0.00 0.00 92 1012.3
20260906070018 77 86 0.0 0.9 0.00 0.00 0.00 92 1012.3
20260906064518 77 63 0.0 0.0 0.00 0.00 0.00 93 1012.4
20260906063015 78 63 0.0 0.9 0.00 0.00 0.00 92 1012.3
20260906061513 78 65 0.0 0.9 0.00 0.00 0.00 91 1012.3
20260906060018 79 79 0.0 0.9 0.00 0.00 0.00 90 1012.4
20260906054508 79 86 0.0 3.5 0.00 0.00 0.00 90 1012.4
20260906053015 80 91 0.0 1.7 0.00 0.00 0.00 89 1012.3
20260906051504 80 78 0.9 5.2 0.00 0.00 0.00 88 1012.2
20260906050002 80 90 0.0 2.6 0.00 0.00 0.00 88 1012.2
20260906044600 80 79 0.0 1.7 0.00 0.00 0.00 87 1012.0
20260906043059 81 91 0.0 0.9 0.00 0.00 0.00 87 1011.8
20260906041559 81 90 0.0 0.9 0.00 0.00 0.00 86 1011.8
20260906040059 81 141 0.0 0.0 0.00 0.00 0.00 85 1011.6
20260906034558 81 141 0.0 0.9 0.00 0.00 0.00 84 1011.4
20260906033101 82 141 0.0 0.9 0.00 0.00 0.00 83 1011.2
20260906031559 82 141 0.0 0.0 0.00 0.00 0.00 82 1011.2
20260906030056 82 141 0.0 0.9 0.00 0.00 0.00 82 1011.2
20260906024555 82 141 0.0 0.0 0.00 0.00 0.00 81 1011.0
20260906023055 82 141 0.0 0.0 0.00 0.00 0.00 79 1010.9
20260906021559 83 141 0.0 0.0 0.00 0.00 0.00 78 1010.7
20260906020055 83 141 0.0 0.9 0.00 0.00 0.00 77 1010.4
20260906014601 83 141 0.0 0.0 0.00 0.00 0.00 76 1010.2
20260906013052 83 141 0.0 0.0 0.00 0.00 0.00 75 1010.1
20260906011604 83 141 0.0 0.9 0.00 0.00 0.00 74 1010.0
20260906010051 84 141 0.0 0.0 0.00 0.00 0.00 71 1009.7
20260906004550 85 141 0.0 0.0 0.00 0.00 0.00 70 1009.6
20260906003050 86 141 0.0 0.0 0.00 0.00 0.00 68 1009.5
20260906001556 87 141 0.0 0.0 0.00 0.00 0.00 66 1009.5
20260906000050 88 141 0.0 0.0 0.00 0.00 0.00 64 1009.6
20260905234548 88 141 0.0 0.9 0.00 0.00 0.00 63 1009.6
20260905233105 88 141 0.0 0.9 0.00 0.00 0.00 61 1009.5
20260905231553 90 15 0.0 0.9 0.00 0.00 0.00 57 1009.6
20260905230048 91 15 0.0 0.9 0.00 0.00 0.00 55 1010.0
20260905224605 92 32 0.0 4.3 0.00 0.00 0.00 52 1009.9
20260905223044 95 63 0.0 1.7 0.00 0.00 0.00 53 1009.7
20260905221543 101 64 0.0 1.7 0.00 0.00 0.00 46 1009.7
20260905220048 103 72 0.0 0.9 0.00 0.00 0.00 44 1009.5
20260905214541 104 1 0.0 1.7 0.00 0.00 0.00 43 1009.2
20260905213038 104 227 0.0 1.7 0.00 0.00 0.00 43 1009.2
20260905211537 104 200 0.0 1.7 0.00 0.00 0.00 42 1009.3
20260905210036 103 159 0.0 1.7 0.00 0.00 0.00 43 1009.4
20260905204534 101 54 0.0 0.9 0.00 0.00 0.00 44 1009.6
20260905203038 104 343 0.0 1.7 0.00 0.00 0.00 41 1009.7
20260905201532 105 119 0.0 3.5 0.00 0.00 0.00 44 1009.8
20260905200031 106 143 0.0 1.7 0.00 0.00 0.00 39 1010.0
20260905194526 105 61 0.0 3.5 0.00 0.00 0.00 42 1010.1
20260905193023 105 298 0.0 2.6 0.00 0.00 0.00 41 1010.2
20260905191521 105 125 0.0 2.6 0.00 0.00 0.00 40 1010.5
20260905190017 104 111 0.0 3.5 0.00 0.00 0.00 42 1010.6
20260905184517 103 186 0.0 2.6 0.00 0.00 0.00 44 1010.8
20260905183011 102 207 0.9 3.5 0.00 0.00 0.00 46 1011.0
20260905181509 103 217 0.0 4.3 0.00 0.00 0.00 48 1011.3
20260905180005 103 217 0.0 0.9 0.00 0.00 0.00 48 1011.4
20260905174507 101 121 0.0 3.5 0.00 0.00 0.00 50 1011.3
20260905173006 101 72 0.9 2.6 0.00 0.00 0.00 51 1011.4
20260905171558 101 200 0.0 0.0 0.00 0.00 0.00 51 1011.6
20260905170059 100 146 0.0 0.0 0.00 0.00 0.00 53 1011.8
20260905164552 99 256 0.0 0.0 0.00 0.00 0.00 54 1011.9
20260905163051 98 181 0.0 0.0 0.00 0.00 0.00 56 1012.2
20260905161547 97 233 0.0 1.7 0.00 0.00 0.00 56 1012.3
20260905160043 95 270 0.0 0.9 0.00 0.00 0.00 59 1012.4
20260905154541 95 262 0.0 1.7 0.00 0.00 0.00 59 1012.5
20260905153038 94 53 0.0 2.6 0.00 0.00 0.00 60 1012.4
20260905151535 93 200 0.0 2.6 0.00 0.00 0.00 60 1012.5
20260905150032 92 249 0.9 4.3 0.00 0.00 0.00 62 1012.4
20260905144528 91 210 0.9 1.7 0.00 0.00 0.00 63 1012.3
20260905143030 89 135 0.0 0.9 0.00 0.00 0.00 67 1012.3
20260905141529 89 107 0.0 0.9 0.00 0.00 0.00 68 1012.4
20260905140027 90 236 0.0 1.7 0.00 0.00 0.00 65 1012.3
20260905134524 90 173 0.0 1.7 0.00 0.00 0.00 64 1012.3
20260905133020 89 225 0.0 0.9 0.00 0.00 0.00 69 1012.2